Flag for Iran Weather past 2 weeks in Mashhad, Iran

Now
97 °F

Sunny.


Feels Like: 92 °F
Forecast: 73 / 101 °F
Wind: 18 mph from Northeast

Location: Mashhad Airport

Current Time: Jul 1, 2015 at 12:04:02 PM

Latest Report: Jul 1, 2015 at 11:30 AM


Visibility: 10 mi

Pressure: 29.98 "Hg

Humidity: 9%

Dew point: 30 °F

Location of MashhadLocation

Historic Weather in Mashhad — Graph

°F

Mashhad temperature yesterday

Maximum temperature yesterday: 102 °F (at 1:30 PM)
Minimum temperature yesterday: 75 °F (at 4:00 AM)
Average temperature yesterday: 90 °F

Past Weeks' High & Low Weather Summary

 TemperatureHumidityPressure
High104 °F (Jun 29, 3:00 PM)39% (Jun 30, 5:30 AM)30.01 "Hg (Jun 30, 5:30 AM)
Low64 °F (Jun 26, 5:30 AM)4% (Jun 25, 3:30 PM)29.62 "Hg (Jun 26, 5:30 PM)
Average86 °F15%29.81 "Hg
* Reported Jun 16 10:30 AM — Jul 1 10:30 AM, Mashhad, Weather by CustomWeather, © 2015

Note: Actual official high and low records may vary slightly from our data, if they occured in-between our weather recording intervals... More about our weather records

Advertising

Mashhad weather history for previous 24 hours

 ConditionsComfort  
Time TempWeatherWind HumidityBarometerVisibility
10:30 AM
Wed, Jul 1
97 °FSunny.12 mph11%29.98 "Hg10 mi
10:00 AM97 °FSunny.9 mph9%29.98 "Hg10 mi
9:30 AM93 °FSunny.14 mph11%29.98 "Hg10 mi
9:00 AM93 °FSunny.9 mph11%29.98 "Hg10 mi
8:30 AM91 °FSunny.7 mph15%29.98 "Hg10 mi
8:00 AM90 °FSunny.9 mph21%29.98 "Hg10 mi
7:20 AM88 °FSunny.5 mph18%29.98 "Hg10 mi
7:00 AM86 °FSunny.No wind19%29.98 "Hg10 mi
6:30 AM81 °FClear.5 mph26%29.98 "Hg10 mi
6:00 AM77 °FClear.5 mph30%29.98 "Hg10 mi
5:30 AM77 °FClear.5 mph30%29.95 "Hg10 mi
5:00 AM77 °FClear.5 mph26%29.95 "Hg10 mi
4:30 AM77 °FClear.5 mph28%29.95 "Hg10 mi
4:00 AM79 °FClear.5 mph28%29.95 "Hg10 mi
3:30 AM79 °FClear.5 mph28%29.95 "Hg10 mi
3:00 AM79 °FClear.5 mph26%29.95 "Hg10 mi
2:30 AM79 °FClear.No wind28%29.95 "Hg10 mi
2:00 AM79 °FClear.5 mph28%29.95 "Hg10 mi
1:30 AM81 °FClear.No wind26%29.95 "Hg10 mi
1:00 AM81 °FClear.No wind26%29.95 "Hg10 mi
12:30 AM82 °FClear.No wind21%29.98 "Hg10 mi
12:00 AM82 °FClear.7 mph20%29.98 "Hg10 mi
11:30 PM
Tue, Jun 30
86 °FClear.5 mph18%29.98 "Hg10 mi
11:00 PM86 °FClear.7 mph17%29.98 "Hg10 mi
10:30 PM88 °FClear.5 mph16%29.98 "Hg10 mi
9:30 PM90 °FClear.14 mph14%29.98 "Hg10 mi
8:55 PM91 °FSunny.9 mph13%29.98 "Hg10 mi
8:30 PM91 °FSunny.12 mph14%29.95 "Hg10 mi
7:20 PM93 °FSunny.12 mph13%29.95 "Hg10 mi
6:50 PM95 °FSunny.18 mph11%29.95 "Hg10 mi
6:00 PM97 °FSunny.16 mph11%29.95 "Hg10 mi
5:30 PM99 °FSunny.25 mph10%29.95 "Hg10 mi
4:50 PM100 °FSunny.16 mph8%29.95 "Hg10 mi
4:30 PM100 °FSunny.16 mph9%29.95 "Hg10 mi
3:50 PM100 °FSunny.16 mph8%29.95 "Hg10 mi
3:30 PM100 °FSunny.21 mph8%29.95 "Hg10 mi
3:00 PM102 °FSunny.18 mph7%29.95 "Hg10 mi
2:30 PM100 °FSunny.16 mph8%29.95 "Hg10 mi
2:00 PM102 °FSunny.12 mph8%29.95 "Hg10 mi
1:30 PM102 °FSunny.21 mph8%29.98 "Hg10 mi
1:00 PM100 °FSunny.14 mph8%29.98 "Hg10 mi
12:30 PM99 °FSunny.14 mph9%29.98 "Hg10 mi
Weather by CustomWeather, © 2015

See weather overviewHow to use our weather pages